This is the latest recevied weather packets stored in our database for station/object VK5TRM-14. If no packets are shown the sender has not sent any weather packets the latest 10 day(s).
| Time | Temp. | Humidity | Pressure | Rain* | Wind** | Luminosity | Snow |
|---|---|---|---|---|---|---|---|
| 1778018404 | 9.44° C | 97% | 1023.3 hPa | 0 mm | - | - | - |
| 1778017506 | 9.44° C | 97% | 1023.3 hPa | 0 mm | - | - | - |
| 1778016605 | 10° C | 97% | 1023.2 hPa | 0 mm | - | - | - |
| 1778015705 | 10° C | 97% | 1023.2 hPa | 0 mm | - | - | - |
| 1778014805 | 10.56° C | 97% | 1023.2 hPa | 0 mm | - | - | - |
| 1778013905 | 10.56° C | 97% | 1023.2 hPa | 0 mm | - | - | - |
| 1778013005 | 10° C | 97% | 1023.2 hPa | 0 mm | - | - | - |
| 1778012105 | 10° C | 97% | 1023.2 hPa | 0 mm | - | - | - |
| 1778011205 | 8.89° C | 97% | 1023.2 hPa | 0 mm | - | - | - |
| 1778010305 | 8.89° C | 97% | 1023.2 hPa | 0 mm | - | - | - |
| 1778009405 | 8.33° C | 95% | 1023 hPa | 0 mm | - | - | - |
| 1778008505 | 8.33° C | 95% | 1023 hPa | 0 mm | - | - | - |
| 1778007606 | 8.89° C | 95% | 1022.9 hPa | 0 mm | - | - | - |
| 1778006705 | 8.89° C | 95% | 1022.9 hPa | 0 mm | - | - | - |
| 1778005805 | 10.56° C | 96% | 1022.9 hPa | 0 mm | - | - | - |
| 1778004905 | 10.56° C | 96% | 1022.9 hPa | 0 mm | - | - | - |
| 1778004005 | 10.56° C | 95% | 1023 hPa | 0 mm | - | - | - |
| 1778003105 | 10.56° C | 95% | 1023 hPa | 0 mm | - | - | - |
| 1778002205 | 11.11° C | 95% | 1023.1 hPa | 0 mm | - | - | - |
| 1778001305 | 11.11° C | 95% | 1023.1 hPa | 0 mm | - | - | - |
| 1778000406 | 11.67° C | 93% | 1023.2 hPa | 0 mm | - | - | - |
| 1777999505 | 11.67° C | 93% | 1023.2 hPa | 0 mm | - | - | - |
| 1777998605 | 11.67° C | 94% | 1023.4 hPa | 0 mm | - | - | - |
| 1777997705 | 11.67° C | 94% | 1023.4 hPa | 0 mm | - | - | - |
| 1777996805 | 12.22° C | 94% | 1023.5 hPa | 0 mm | - | - | - |
* Rain since midnight (hover to see other rain measurements)
** Current wind speed in m/s (hover to see current wind gust speed)